EST,Max TemperatureF,Mean TemperatureF,Min TemperatureF,Max Dew PointF,MeanDew PointF,Min DewpointF,Max Humidity, Mean Humidity, Min Humidity, Max Sea Level PressureIn, Mean Sea Level PressureIn, Min Sea Level PressureIn, Max VisibilityMiles, Mean VisibilityMiles, Min VisibilityMiles, Max Wind SpeedMPH, Mean Wind SpeedMPH, Max Gust SpeedMPH,PrecipitationIn, CloudCover, Events, WindDirDegrees
2013-2-1,41,32,24,27,13,3,61,44,24,30.40,30.12,29.83,10,10,10,30,10,46,0.00,2,,292
2013-2-2,39,29,19,18,11,7,74,45,28,30.42,30.27,30.03,10,10,10,12,4,17,0.00,3,,208
2013-2-3,46,40,33,28,24,18,70,55,42,30.02,29.92,29.84,10,10,10,16,4,23,0.00,6,,286
2013-2-4,44,35,26,27,20,16,80,51,37,30.16,30.05,29.97,10,10,10,12,5,20,0.00,1,,215
2013-2-5,55,48,42,36,32,27,76,55,44,29.98,29.92,29.86,10,10,10,10,6,18,0.00,5,,233
2013-2-6,57,45,33,37,34,30,93,71,44,30.35,30.16,29.95,10,10,10,14,4,,0.00,1,,81
2013-2-7,48,40,33,43,34,28,100,77,54,30.42,30.33,30.15,10,9,2,12,5,18,0.38,2,,76
2013-2-8,53,48,42,46,40,28,100,83,53,30.14,29.84,29.71,10,8,2,22,10,28,1.29,6,,345
2013-2-9,50,40,30,27,22,18,75,50,30,30.40,30.19,29.93,10,10,10,22,11,30,0.00,0,,337
2013-2-10,51,38,26,36,24,18,80,60,30,30.52,30.42,30.30,10,10,10,14,4,,0.00,0,,127
2013-2-11,62,52,42,59,51,36,94,84,67,30.29,30.01,29.83,10,9,2,14,10,26,0.03,6,,207
2013-2-12,60,51,42,48,35,28,76,53,29,30.04,29.96,29.85,10,10,10,13,7,20,0.00,0,,259
2013-2-13,51,46,42,46,42,36,93,80,54,29.95,29.77,29.62,10,8,1,12,3,20,0.07,7,,264
2013-2-14,51,42,33,39,35,30,100,75,44,30.09,29.99,29.78,10,9,1,12,6,18,0.00,2,,281
2013-2-15,62,48,35,41,37,34,93,67,37,30.09,30.02,29.94,10,10,7,14,5,18,0.00,0,,181
2013-2-16,44,38,32,37,34,28,100,86,71,30.00,29.90,29.81,10,6,1,13,6,20,0.25,7,,3
2013-2-17,37,32,26,28,14,5,87,51,30,30.25,30.01,29.82,10,10,10,23,12,31,0.00,2,,308
2013-2-18,46,32,19,21,14,7,80,44,22,30.43,30.33,30.26,10,10,10,9,6,16,0.00,0,,252
2013-2-19,57,47,37,50,38,21,94,73,49,30.27,30.01,29.80,10,9,2,17,8,25,0.06,3,,215
2013-2-20,48,40,32,37,22,16,87,51,27,30.16,30.02,29.89,10,10,10,16,8,23,0.00,0,,294
2013-2-21,46,35,24,21,18,16,74,51,34,30.32,30.21,30.15,10,10,10,14,5,23,0.00,0,,341
2013-2-22,42,38,33,37,28,19,93,69,52,30.38,30.31,30.20,10,10,3,12,4,16,0.02,6,,52
2013-2-23,42,40,39,43,40,37,100,94,87,30.18,29.95,29.81,10,4,1,15,5,20,0.32,8,,336
2013-2-24,59,48,37,46,40,25,100,78,48,30.10,29.90,29.79,10,8,0,16,5,23,0.00,6,,330
2013-2-25,46,38,30,28,25,21,93,63,40,30.25,30.19,30.11,10,10,10,13,4,21,0.00,0,,16
2013-2-26,57,44,30,57,42,28,100,91,81,30.22,29.94,29.57,10,7,0,21,5,31,1.50,5,,85
2013-2-27,62,52,41,55,44,39,100,77,42,29.72,29.67,29.55,10,9,0,15,7,20,0.01,5,,261
2013-2-28,51,45,39,41,33,27,93,64,40,29.78,29.71,29.65,10,10,10,16,6,25,0.00,6,,284